Darstellungsparameter: Aktuell verwendete Einstellungen:
Skalierung der Graphiken ... ?
xyx+y,   Skalierungsfaktor:      Skalierung: Modus: x, Faktor: 1
Darstellungszeitraum ... ?
Vom - - bis: - -   Zeitraum: 26.02.2021 - 26.02.2021
Min/Max/Avg-Anzeige ... ?
Zeige MMA aktuell
Zeige MMA Monat
Zeige MMA alles
Zeige --A aktuell
Zeige --A Monat
Zeige --A alles
Keine MMA-Anzeige
MMA:
Average (ber die Originaldaten)
MMA-Basis: 26.02.2021 - 26.02.2021
Quicknavigation für Darstellung... ?
Tage:      1T, 2T, 3T, 5T -1T -2T -3T -5T +1T +2T +3T +5T
Wochen: 1W, 2W, 3W -1W -2W -3W +1W +2W +3W
Monate: 1M, 3M, 6M -1M -3M -6M +1M +3M +6M
Jahre:    1J, 3J, 5J, 10J -1J -3J -5J -10J +1J +3J +5J +10J
Nutze für die Darstellung ... ?
Originaldaten oder Mittelwerte auf ...
Stundenbasis Tagesbasis Wochenbasis
Monatsbasis Jahresbasis      Datenbasis: Original-Daten
Darstellen als:
Statistik (Auto) Statistik J:M      Darstellung:

Der gewünschte Datumsbereich war nicht gültig/verfügbar und wurde korrigiert....
Das angegebene Enddatum (19.04.2022 23:59:59) liegt in der Zukunft.
Das angegebene Startdatum (20.03.2022 00:00:00) liegt in der Zukunft.


Zur Graphik,    zurück zur Übersicht aller Sensoren.
 
Tabellarische Datenbersicht: ?
 
Sensor: Nr:Datum:Temp:Abs-Feuchte:Windchill:Wind:
Aussen-T/F 1 26-02-2021 01:00:00 6.5 C 6.67 g/m*3 6.5 C 3.2 km/h
2 26-02-2021 01:05:00 6.5 C 6.67 g/m*3 6.5 C 1.6 km/h
3 26-02-2021 01:10:00 6.5 C 6.67 g/m*3 6.5 C 1.6 km/h
4 26-02-2021 01:15:00 6.5 C 6.67 g/m*3 6.5 C 0 km/h
5 26-02-2021 01:20:00 6.5 C 6.67 g/m*3 6.5 C 4.8 km/h
6 26-02-2021 01:25:00 6.5 C 6.67 g/m*3 6.5 C 3.2 km/h
7 26-02-2021 01:30:00 6.4 C 6.56 g/m*3 6.4 C 3.2 km/h
8 26-02-2021 01:35:00 6.3 C 6.51 g/m*3 6.3 C 1.6 km/h
9 26-02-2021 01:40:00 6.2 C 6.47 g/m*3 6.2 C 1.6 km/h
10 26-02-2021 01:45:00 6.3 C 6.66 g/m*3 6.3 C 3.2 km/h
11 26-02-2021 01:50:00 6.4 C 6.71 g/m*3 6.4 C 3.2 km/h
12 26-02-2021 01:55:00 6.5 C 6.67 g/m*3 6.5 C 3.2 km/h
13 26-02-2021 02:00:00 6.4 C 6.63 g/m*3 6.4 C 3.2 km/h
14 26-02-2021 02:05:00 6.4 C 6.63 g/m*3 6.4 C 3.2 km/h
15 26-02-2021 02:10:00 6.3 C 6.59 g/m*3 6.3 C 0 km/h
16 26-02-2021 02:15:00 6.3 C 6.59 g/m*3 6.3 C 0 km/h
17 26-02-2021 02:20:00 6.3 C 6.59 g/m*3 6.3 C 1.6 km/h
18 26-02-2021 02:25:00 6.3 C 6.66 g/m*3 6.3 C 0 km/h
19 26-02-2021 02:30:00 6.3 C 6.66 g/m*3 6.3 C 0 km/h
20 26-02-2021 02:35:00 6.4 C 6.71 g/m*3 6.4 C 0 km/h
21 26-02-2021 02:40:00 6.4 C 6.71 g/m*3 6.4 C 0 km/h
22 26-02-2021 02:45:00 6.4 C 6.71 g/m*3 6.4 C 1.6 km/h
23 26-02-2021 02:50:00 6.5 C 6.75 g/m*3 6.5 C 0 km/h
24 26-02-2021 02:55:00 6.6 C 6.79 g/m*3 6.6 C 0 km/h
25 26-02-2021 03:00:00 6.8 C 6.96 g/m*3 6.8 C 0 km/h
Sensor: Nr:Datum:Temp:Abs-Feuchte:Windchill:Wind:
Aussen-T/F 26 26-02-2021 03:05:00 6.8 C 6.88 g/m*3 6.8 C 0 km/h
27 26-02-2021 03:10:00 6.9 C 6.93 g/m*3 6.9 C 0 km/h
28 26-02-2021 03:15:00 6.9 C 6.85 g/m*3 6.9 C 0 km/h
29 26-02-2021 03:20:00 7 C 6.9 g/m*3 7 C 0 km/h
30 26-02-2021 03:25:00 7 C 6.9 g/m*3 7 C 0 km/h
31 26-02-2021 03:30:00 7.1 C 6.94 g/m*3 7.1 C 0 km/h
32 26-02-2021 03:35:00 7.1 C 6.94 g/m*3 7.1 C 0 km/h
33 26-02-2021 03:40:00 7.1 C 6.86 g/m*3 7.1 C 0 km/h
34 26-02-2021 03:45:00 7.1 C 6.86 g/m*3 7.1 C 0 km/h
35 26-02-2021 03:50:00 7.1 C 6.86 g/m*3 7.1 C 0 km/h
36 26-02-2021 03:55:00 7.1 C 6.86 g/m*3 7.1 C 0 km/h
37 26-02-2021 04:00:00 7.1 C 6.86 g/m*3 7.1 C 0 km/h
38 26-02-2021 04:05:00 7.1 C 6.86 g/m*3 7.1 C 0 km/h
39 26-02-2021 04:10:00 7.2 C 6.99 g/m*3 7.2 C 0 km/h
40 26-02-2021 04:15:00 7.3 C 7.03 g/m*3 7.3 C 0 km/h
41 26-02-2021 04:20:00 7.3 C 6.95 g/m*3 7.3 C 0 km/h
42 26-02-2021 04:25:00 7.3 C 6.95 g/m*3 7.3 C 0 km/h
43 26-02-2021 04:30:00 7.2 C 6.91 g/m*3 7.2 C 0 km/h
44 26-02-2021 04:35:00 7.2 C 6.91 g/m*3 7.2 C 0 km/h
45 26-02-2021 04:40:00 7.2 C 6.91 g/m*3 7.2 C 0 km/h
46 26-02-2021 04:45:00 7.2 C 6.91 g/m*3 7.2 C 0 km/h
47 26-02-2021 04:50:00 7.3 C 6.95 g/m*3 7.3 C 0 km/h
48 26-02-2021 04:55:00 7.3 C 7.03 g/m*3 7.3 C 1.6 km/h
49 26-02-2021 05:00:00 7.4 C 7.08 g/m*3 7.4 C 4.8 km/h
50 26-02-2021 05:05:00 7.5 C 7.12 g/m*3 7.5 C 0 km/h
Sensor: Nr:Datum:Temp:Abs-Feuchte:Windchill:Wind:
Aussen-T/F 51 26-02-2021 05:10:00 7.6 C 7.17 g/m*3 7.6 C 4.8 km/h
52 26-02-2021 05:15:00 7.6 C 7.09 g/m*3 7.6 C 4.8 km/h
53 26-02-2021 05:20:00 7.7 C 7.14 g/m*3 6.71 C 6.4 km/h
54 26-02-2021 05:25:00 7.7 C 7.14 g/m*3 7.7 C 1.6 km/h
55 26-02-2021 05:30:00 7.7 C 7.05 g/m*3 6.28 C 8.1 km/h
56 26-02-2021 05:35:00 7.7 C 7.14 g/m*3 7.7 C 3.2 km/h
57 26-02-2021 05:40:00 7.7 C 7.05 g/m*3 7.7 C 0 km/h
58 26-02-2021 05:45:00 7.7 C 7.05 g/m*3 7.7 C 0 km/h
59 26-02-2021 05:50:00 7.7 C 7.14 g/m*3 7.7 C 1.6 km/h
60 26-02-2021 05:55:00 7.7 C 7.05 g/m*3 7.7 C 1.6 km/h
61 26-02-2021 06:00:00 7.7 C 7.14 g/m*3 7.7 C 0 km/h
62 26-02-2021 06:05:00 7.8 C 7.18 g/m*3 7.8 C 1.6 km/h
63 26-02-2021 06:10:00 7.8 C 7.18 g/m*3 7.8 C 1.6 km/h
64 26-02-2021 06:15:00 7.8 C 7.1 g/m*3 7.8 C 0 km/h
65 26-02-2021 06:20:00 7.8 C 7.1 g/m*3 7.8 C 0 km/h
66 26-02-2021 06:25:00 7.8 C 7.1 g/m*3 7.8 C 0 km/h
67 26-02-2021 06:30:00 7.8 C 7.1 g/m*3 7.8 C 0 km/h
68 26-02-2021 06:35:00 7.7 C 7.05 g/m*3 6.71 C 6.4 km/h
69 26-02-2021 06:40:00 8.1 C 7.57 g/m*3 6.75 C 8.1 km/h
70 26-02-2021 06:45:00 8.6 C 7.91 g/m*3 5.86 C 17.7 km/h
71 26-02-2021 06:50:00 8.7 C 7.96 g/m*3 6.17 C 16.1 km/h
72 26-02-2021 06:55:00 8.8 C 7.92 g/m*3 6.3 C 16.1 km/h
73 26-02-2021 07:00:00 8.8 C 7.83 g/m*3 6.97 C 11.3 km/h
74 26-02-2021 07:05:00 8.7 C 7.78 g/m*3 6.6 C 12.9 km/h
75 26-02-2021 07:10:00 8.7 C 7.78 g/m*3 6.17 C 16.1 km/h
Sensor: Nr:Datum:Temp:Abs-Feuchte:Windchill:Wind:
Aussen-T/F 76 26-02-2021 07:15:00 8.6 C 7.73 g/m*3 7.01 C 9.7 km/h
77 26-02-2021 07:20:00 8.5 C 7.68 g/m*3 7.22 C 8.1 km/h
78 26-02-2021 07:25:00 8.4 C 7.63 g/m*3 6.49 C 11.3 km/h
79 26-02-2021 07:30:00 8.3 C 7.59 g/m*3 6.37 C 11.3 km/h
80 26-02-2021 07:35:00 8.3 C 7.59 g/m*3 7.41 C 6.4 km/h
81 26-02-2021 07:40:00 8.2 C 7.54 g/m*3 6.87 C 8.1 km/h
82 26-02-2021 07:45:00 8.1 C 7.49 g/m*3 6.13 C 11.3 km/h
83 26-02-2021 07:50:00 8 C 7.44 g/m*3 5.3 C 16.1 km/h
84 26-02-2021 07:55:00 8 C 7.44 g/m*3 8 C 4.8 km/h
85 26-02-2021 08:00:00 7.9 C 7.39 g/m*3 6.18 C 9.7 km/h
86 26-02-2021 08:05:00 7.9 C 7.39 g/m*3 6.18 C 9.7 km/h
87 26-02-2021 08:10:00 7.8 C 7.35 g/m*3 6.4 C 8.1 km/h
88 26-02-2021 08:15:00 7.8 C 7.35 g/m*3 6.4 C 8.1 km/h
89 26-02-2021 08:20:00 7.8 C 7.35 g/m*3 6.83 C 6.4 km/h
90 26-02-2021 08:25:00 7.8 C 7.35 g/m*3 6.83 C 6.4 km/h
91 26-02-2021 08:30:00 7.8 C 7.35 g/m*3 6.83 C 6.4 km/h
92 26-02-2021 08:35:00 7.8 C 7.35 g/m*3 6.06 C 9.7 km/h
93 26-02-2021 08:40:00 7.8 C 7.35 g/m*3 7.8 C 3.2 km/h
94 26-02-2021 08:45:00 7.8 C 7.35 g/m*3 6.83 C 6.4 km/h
95 26-02-2021 08:50:00 7.8 C 7.43 g/m*3 5.51 C 12.9 km/h
96 26-02-2021 08:55:00 7.6 C 7.33 g/m*3 5.53 C 11.3 km/h
97 26-02-2021 09:00:00 7.5 C 7.28 g/m*3 4.9 C 14.5 km/h
98 26-02-2021 09:05:00 7.4 C 7.24 g/m*3 5.28 C 11.3 km/h
99 26-02-2021 09:10:00 7.3 C 7.19 g/m*3 7.3 C 1.6 km/h
100 26-02-2021 09:15:00 7.3 C 7.19 g/m*3 5.81 C 8.1 km/h
Sensor: Nr:Datum:Temp:Abs-Feuchte:Windchill:Wind:
Aussen-T/F 101 26-02-2021 09:20:00 7.2 C 7.14 g/m*3 5.69 C 8.1 km/h
102 26-02-2021 09:25:00 7 C 6.97 g/m*3 4.29 C 14.5 km/h
103 26-02-2021 09:30:00 6.9 C 6.93 g/m*3 5.79 C 6.4 km/h
104 26-02-2021 09:35:00 6.8 C 6.88 g/m*3 5.67 C 6.4 km/h
105 26-02-2021 09:40:00 6.7 C 6.84 g/m*3 6.7 C 4.8 km/h
106 26-02-2021 09:45:00 6.6 C 6.79 g/m*3 5.44 C 6.4 km/h
107 26-02-2021 09:50:00 6.6 C 6.79 g/m*3 6.6 C 3.2 km/h
108 26-02-2021 09:55:00 6.6 C 6.87 g/m*3 5.44 C 6.4 km/h
109 26-02-2021 10:00:00 6.6 C 6.87 g/m*3 6.6 C 4.8 km/h
110 26-02-2021 10:05:00 6.6 C 6.87 g/m*3 5.44 C 6.4 km/h
111 26-02-2021 10:10:00 6.6 C 6.95 g/m*3 6.6 C 1.6 km/h
112 26-02-2021 10:15:00 6.6 C 6.95 g/m*3 6.6 C 3.2 km/h
113 26-02-2021 10:20:00 6.6 C 6.95 g/m*3 6.6 C 1.6 km/h
114 26-02-2021 10:25:00 6.6 C 6.95 g/m*3 6.6 C 1.6 km/h
115 26-02-2021 10:30:00 6.6 C 6.95 g/m*3 6.6 C 3.2 km/h
116 26-02-2021 10:35:00 6.6 C 6.95 g/m*3 6.6 C 0 km/h
117 26-02-2021 10:40:00 6.7 C 6.99 g/m*3 6.7 C 0 km/h
118 26-02-2021 10:45:00 6.7 C 7.07 g/m*3 6.7 C 1.6 km/h
119 26-02-2021 10:50:00 6.7 C 7.07 g/m*3 6.7 C 3.2 km/h
120 26-02-2021 10:55:00 6.7 C 7.07 g/m*3 6.7 C 0 km/h
121 26-02-2021 11:00:00 6.8 C 7.11 g/m*3 6.8 C 1.6 km/h
122 26-02-2021 11:05:00 6.8 C 7.11 g/m*3 6.8 C 3.2 km/h
123 26-02-2021 11:10:00 6.8 C 7.11 g/m*3 6.8 C 4.8 km/h
124 26-02-2021 11:15:00 6.8 C 7.11 g/m*3 4.56 C 11.3 km/h
125 26-02-2021 11:20:00 6.8 C 7.11 g/m*3 5.22 C 8.1 km/h
Sensor: Nr:Datum:Temp:Abs-Feuchte:Windchill:Wind:
Aussen-T/F 126 26-02-2021 11:25:00 6.8 C 7.04 g/m*3 6.8 C 4.8 km/h
127 26-02-2021 11:30:00 6.8 C 7.11 g/m*3 6.8 C 3.2 km/h
128 26-02-2021 11:35:00 6.8 C 7.11 g/m*3 6.8 C 1.6 km/h
129 26-02-2021 11:40:00 6.8 C 7.11 g/m*3 6.8 C 1.6 km/h
130 26-02-2021 11:45:00 6.8 C 7.11 g/m*3 6.8 C 1.6 km/h
131 26-02-2021 11:50:00 6.8 C 7.11 g/m*3 6.8 C 0 km/h
132 26-02-2021 11:55:00 6.9 C 7.16 g/m*3 6.9 C 4.8 km/h
133 26-02-2021 12:00:00 6.8 C 7.11 g/m*3 6.8 C 3.2 km/h
134 26-02-2021 12:05:00 6.8 C 7.11 g/m*3 5.67 C 6.4 km/h
135 26-02-2021 12:10:00 6.8 C 7.11 g/m*3 6.8 C 3.2 km/h
136 26-02-2021 12:15:00 6.8 C 7.11 g/m*3 6.8 C 1.6 km/h
137 26-02-2021 12:20:00 6.9 C 7.16 g/m*3 5.79 C 6.4 km/h
138 26-02-2021 12:25:00 7.1 C 7.33 g/m*3 7.1 C 0 km/h
139 26-02-2021 12:30:00 7.2 C 7.38 g/m*3 7.2 C 1.6 km/h
140 26-02-2021 12:35:00 7.2 C 7.3 g/m*3 7.2 C 0 km/h
141 26-02-2021 12:40:00 7.3 C 7.43 g/m*3 7.3 C 3.2 km/h
142 26-02-2021 12:45:00 7.2 C 7.3 g/m*3 7.2 C 4.8 km/h
143 26-02-2021 12:50:00 7.1 C 7.25 g/m*3 5.23 C 9.7 km/h
144 26-02-2021 12:55:00 7.1 C 7.18 g/m*3 7.1 C 3.2 km/h
145 26-02-2021 13:00:00 7 C 7.13 g/m*3 7 C 3.2 km/h
146 26-02-2021 13:05:00 7 C 7.13 g/m*3 7 C 4.8 km/h
147 26-02-2021 13:10:00 7.1 C 7.18 g/m*3 7.1 C 0 km/h
148 26-02-2021 13:15:00 7.2 C 7.22 g/m*3 7.2 C 0 km/h
149 26-02-2021 13:20:00 7.3 C 7.35 g/m*3 7.3 C 0 km/h
150 26-02-2021 13:25:00 7.4 C 7.32 g/m*3 7.4 C 0 km/h
Sensor: Nr:Datum:Temp:Abs-Feuchte:Windchill:Wind:
Aussen-T/F 151 26-02-2021 13:30:00 7.6 C 7.41 g/m*3 7.6 C 0 km/h
152 26-02-2021 13:35:00 7.8 C 7.51 g/m*3 7.8 C 0 km/h
153 26-02-2021 13:40:00 7.8 C 7.43 g/m*3 7.8 C 0 km/h
154 26-02-2021 13:45:00 7.9 C 7.56 g/m*3 7.9 C 0 km/h
155 26-02-2021 13:50:00 8 C 7.61 g/m*3 8 C 0 km/h
156 26-02-2021 13:55:00 8 C 7.44 g/m*3 8 C 0 km/h
157 26-02-2021 14:00:00 8 C 7.44 g/m*3 8 C 3.2 km/h
158 26-02-2021 14:05:00 8 C 7.36 g/m*3 8 C 0 km/h
159 26-02-2021 14:10:00 8.1 C 7.41 g/m*3 8.1 C 1.6 km/h
160 26-02-2021 14:15:00 8.2 C 7.54 g/m*3 8.2 C 1.6 km/h
161 26-02-2021 14:20:00 8.3 C 7.59 g/m*3 8.3 C 4.8 km/h

Legende:
   Min
   Max


Maximal/Minimal-Werte vom 26.02.2021 - 26.02.2021

Sensor Min Max Avg
Temp
(Aussen-T/F)
6.2 °C
26-02-2021  01:40:00
8.8 °C
26-02-2021  06:55:00
7.25 °C
Abs-Feuchte
(Aussen-T/F)
6.47 g/m*3
26-02-2021  01:40:00
7.96 g/m*3
26-02-2021  06:50:00
7.06 g/m*3
Windchill
(Aussen-T/F)
4.29 C
26-02-2021  09:25:00
8.3 C
26-02-2021  14:20:00
6.75 C

Die Daten stammen von einer Davis Vantage Pro 2 Wetter-Station und werden unter Linux mit der Software wview2wettercgi und aufbereitet. Alle Angaben erfolgen ohne Gewähr für ihre Vollständigkeit oder Richtigkeit.
Kontakt: Rainer Krienke krienke@uni-koblenz.de . Meine Webseiten an der Uni Koblenz oder privat.
Version: $Revision: 0.78 $